{"data":{"norad_id":45408,"intl_designator":"2020-019BA","name":"STARLINK-1278","alt_names":[],"object_type":"PAYLOAD","status":"ACTIVE","operator":null,"country":"US","launch_date":"2020-03-18","launch_site_code":"AFETR","launch_vehicle":null,"mission":null,"orbit_class":"UNKNOWN","rcs_meters":null,"size_class":null,"mass_kg":null,"dimensions":null,"purposes":["comms"],"wikipedia_slug":null,"has_3d_model":false,"image_url":null,"decayed_at":null,"tle_current":{"epoch":"2026-09-20T06:00:02.000160Z","epoch_age_seconds":36044,"freshness":"FRESH","line1":"1 45408U 20019BA  26263.25002315  .01065342  55923-3  22545-2 0  9998","line2":"2 45408  53.0284 243.3694 0001892  87.4400  77.1129 15.98298116  6035","mean_motion":15.98298116,"eccentricity":0.0001892,"inclination_deg":53.0284,"raan_deg":243.3694,"arg_perigee_deg":87.44,"mean_anomaly_deg":77.1129,"bstar":0.0022545,"rev_number":603,"period_min":90.09583291031,"perigee_km":277.8807791615,"apogee_km":280.39989290546,"semimajor_km":6657.2773360335,"source":"CELESTRAK","updated_at":"2026-09-20T09:00:38.234526Z"}}}